[[{"header":{"parameterUnit":"m.s-1","parameterCategory":1,"la1":30.2991,"la2":30.254,"lo1":-89.0895,"lo2":-89.0444,"dy":0.0017,"dx":0.0017,"nx":28,"ny":28,"refTime":"2025-09-05T21:00:00:Z","depth":0,"parameterNumber":2,"parameterNumberName":"U-component_of_WINDS"},"data":[0,0,0,0,0,0,0,0,0,0,0,0,0,0,0,0,0,0,0,0,0,0,0,0,0,0,0,0,0,0,0,0,0,0,0,0,0,0,0,0,0,0,0,0,0,0,0,0,0,0,0,0,0,0,0,0,0,0,0.6208,0.6207,0,0.6203,0.6203,0.6203,0.621,0.621,0.621,0.621,0.6206,0.6206,0.6206,0,0,0,0,0,0,0,0,0,0,0,0,0,0.6224,0.6224,0.6208,0.6207,0.6207,0.6203,0.6203,0.6203,0.621,0.621,0.621,0.6211,0.6206,0.6206,0.6206,0,0,0,0,0,0,0,0,0,0,0,0,0,0.6218,0.6224,0.6208,0.621,0.6211,0.6203,0.6203,0.6203,0.621,0.621,0.621,0.6211,0.6207,0.6206,0.6206,0.6195,0,0,0.6204,0.6204,0,0,0,0,0,0,0,0,0.6218,0.6217,0.621,0.621,0.621,0.6207,0.6207,0.62,0.621,0.621,0.621,0.6211,0.6206,0.6206,0.6204,0.6195,0.6195,0.6204,0.6204,0.6203,0.6203,0,0,0,0,0,0,0,0.6219,0.6217,0.6206,0.621,0.621,0.6212,0.6212,0.6206,0.6206,0.621,0.621,0.621,0.6207,0.6205,0.6204,0.6195,0.6204,0.6204,0.6203,0.6203,0.6177,0.6177,0,0,0,0,0,0,0.6219,0.6218,0.6206,0.6206,0.6215,0.6212,0.6211,0.6208,0.6206,0.6206,0.6209,0.621,0.6205,0.6205,0.6204,0.6192,0.6203,0.6203,0.6203,0.6177,0.6177,0.6176,0,0,0,0,0,0,0.6219,0.6217,0.6206,0.6212,0.6211,0.6211,0.6207,0.6208,0.6206,0.6206,0.6206,0.6207,0.6206,0.6205,0.6197,0.6192,0.6203,0.6202,0.6178,0.6177,0.6177,0.6167,0,0,0,0,0,0,0.6219,0.6217,0.6213,0.6212,0.621,0.6199,0.6207,0.6207,0.6205,0.6206,0.6204,0.6204,0.6206,0.6198,0.6197,0.6191,0.6202,0.6178,0.6177,0.6177,0.6168,0.6166,0.6165,0,0,0,0,0,0.622,0.6211,0.6213,0.6211,0.6205,0.6199,0.6198,0.62,0.6204,0.62,0.62,0.6204,0.6193,0.6197,0.6196,0.619,0.6179,0.6178,0.6177,0.6169,0.6167,0.6165,0,0,0,0,0,0,0.6212,0.6211,0.6213,0.6203,0.6201,0.62,0.6195,0.6198,0.6194,0.6195,0.6198,0.6198,0.619,0.6189,0.6194,0.618,0.6186,0.6185,0.6181,0.6179,0.6177,0.6178,0.6201,0,0,0,0,0,0.6209,0.6204,0.6203,0.6194,0.6193,0.6194,0.6191,0.6193,0.6191,0.619,0.619,0.6188,0.6184,0.6181,0.6178,0.6168,0.6168,0.6164,0.6162,0.6161,0.616,0.6155,0.6153,0.6174,0.6174,0.6174,0,0,0.6203,0.6201,0.6198,0.6193,0.6191,0.6186,0.6193,0.6187,0.6184,0.619,0.6182,0.6182,0.618,0.6172,0.6168,0.6171,0.6154,0.616,0.6159,0.6158,0.6154,0.6152,0.615,0.6173,0.6173,0.6173,0,0,0.6189,0.6187,0.618,0.6178,0.6176,0.6177,0.6175,0.6174,0.6174,0.6167,0.6171,0.6167,0.616,0.6158,0.6157,0.6143,0.6147,0.6142,0.6134,0.6129,0.6128,0.6126,0.6121,0.612,0.6141,0.6141,0.6141,0,0.6181,0.6174,0.6176,0.617,0.6168,0.6173,0.6165,0.6164,0.6161,0.6159,0.6163,0.6154,0.6153,0.6145,0.6141,0.614,0.6138,0.6142,0.6128,0.6126,0.6125,0.612,0.6119,0.614,0.614,0.614,0.614,0,0.6165,0.616,0.6154,0.6151,0.6148,0.6141,0.6143,0.614,0.6142,0.6143,0.6136,0.6135,0.6131,0.6129,0.6131,0.6121,0.6123,0.6127,0.6133,0.6122,0.6118,0.6117,0.6139,0.614,0.614,0.614,0,0,0.6145,0.6144,0.6142,0.614,0.6138,0.6134,0.6128,0.6125,0.6122,0.612,0.6115,0.6109,0.6113,0.6111,0.6113,0.6109,0.6099,0.6114,0.6114,0.6111,0.6088,0.6085,0.6083,0.6101,0.6101,0.6101,0.6088,0,0.6132,0.6121,0.6123,0.6113,0.6108,0.6113,0.6108,0.6107,0.6107,0.6103,0.6104,0.61,0.6105,0.6104,0.61,0.6101,0.6094,0.6102,0.6097,0.6097,0.6097,0.608,0.6077,0.6065,0.6086,0.6086,0.6086,0,0.6114,0.6111,0.6101,0.61,0.6098,0.6093,0.609,0.6087,0.6085,0.6086,0.6084,0.6087,0.6082,0.6088,0.6081,0.6086,0.6084,0.6084,0.6084,0.6083,0.6091,0.608,0.6061,0.606,0.6083,0.6083,0.6084,0,0.6102,0.6095,0.6088,0.6086,0.6085,0.6082,0.6081,0.608,0.6078,0.6076,0.6074,0.6071,0.607,0.6067,0.607,0.6074,0.6062,0.6069,0.6063,0.6063,0.606,0.606,0.6041,0.6059,0.6059,0.6059,0.6059,0,0.6086,0.6079,0.6082,0.6077,0.607,0.6073,0.6066,0.6066,0.6065,0.6061,0.6065,0.6061,0.6064,0.6061,0.6063,0.6057,0.6056,0.6056,0.6057,0.6056,0.6056,0.6055,0.6056,0.6058,0.6058,0.6058,0.6059,0,0.607,0.6072,0.6064,0.6064,0.6064,0.6058,0.6058,0.6054,0.6055,0.605,0.6049,0.6051,0.6047,0.6049,0.6045,0.6046,0.6038,0.604,0.6038,0.6039,0.6033,0.6033,0.6013,0.601,0.6029,0.6029,0.6029,0,0.6061,0.6055,0.6055,0.6052,0.6051,0.6047,0.6045,0.6048,0.6045,0.6043,0.604,0.6036,0.6034,0.6027,0.6028,0.6026,0.6027,0.602,0.6027,0.6026,0.6027,0.6027,0.6027,0.6019,0.6018,0.6018,0.6018,0,0.6043,0.6044,0.604,0.6037,0.6035,0.6032,0.603,0.6028,0.6031,0.6028,0.6024,0.6022,0.6018,0.6015,0.6012,0.6012,0.6016,0.6016,0.6015,0.6013,0.6013,0.6013,0.6035,0.6017,0.6017,0.6017,0.6017,0.6017,0.603,0.6026,0.6024,0.6021,0.602,0.6018,0.6014,0.6015,0.6011,0.6008,0.601,0.6006,0.6005,0.6002,0.6001,0.5998,0.6001,0.5999,0.5998,0.5997,0.5997,0.6014,0.5998,0.5998,0.5998,0.5998,0.5998,0,0.6013,0.6012,0.6008,0.6006,0.6003,0.6006,0.6004,0.6002,0.5998,0.5997,0.5994,0.599,0.5986,0.5987,0.5984,0.5982,0.5983,0.5981,0.5981,0.5981,0.5994,0.5996,0.598,0.598,0.598,0.598,0.598,0.598,0.6003,0.5996,0.5997,0.599,0.599,0.5985,0.5984,0.5983,0.5982,0.5977,0.5974,0.5974,0.5974,0.5971,0.5969,0.5969,0.5968,0.5965,0.5966,0.5978,0.598,0.5982,0.5983,0.5965,0.5965,0.5953,0.5953,0.5953]},{"header":{"parameterUnit":"m.s-1","parameterCategory":1,"la1":30.2991,"la2":30.254,"lo1":-89.0895,"lo2":-89.0444,"dy":0.0017,"dx":0.0017,"nx":28,"ny":28,"refTime":"2025-09-05T21:00:00:Z","depth":0,"parameterNumber":3,"parameterNumberName":"V-component_of_WINDS"},"data":[0,0,0,0,0,0,0,0,0,0,0,0,0,0,0,0,0,0,0,0,0,0,0,0,0,0,0,0,0,0,0,0,0,0,0,0,0,0,0,0,0,0,0,0,0,0,0,0,0,0,0,0,0,0,0,0,0,0,0.7389,0.7389,0,0.7414,0.7415,0.7415,0.7425,0.7425,0.7425,0.7425,0.745,0.745,0.7451,0,0,0,0,0,0,0,0,0,0,0,0,0,0.7345,0.7346,0.7389,0.7389,0.739,0.7414,0.7415,0.7415,0.7425,0.7425,0.7425,0.7425,0.7449,0.745,0.7451,0,0,0,0,0,0,0,0,0,0,0,0,0,0.7366,0.7346,0.7389,0.7398,0.7399,0.7414,0.7415,0.7415,0.7425,0.7425,0.7425,0.7425,0.7449,0.745,0.7451,0.7459,0,0,0.7454,0.7455,0,0,0,0,0,0,0,0,0.7365,0.7368,0.7396,0.7397,0.7398,0.7417,0.7408,0.743,0.7425,0.7415,0.7425,0.7425,0.7439,0.744,0.7445,0.746,0.7462,0.7454,0.7455,0.7456,0.7456,0,0,0,0,0,0,0,0.7364,0.7367,0.7399,0.7397,0.7398,0.7399,0.7402,0.7412,0.7427,0.7416,0.7417,0.742,0.7439,0.7444,0.7446,0.7462,0.7454,0.7455,0.7456,0.7456,0.7479,0.7479,0,0,0,0,0,0,0.7361,0.7366,0.7398,0.74,0.7381,0.74,0.7403,0.7411,0.7427,0.7429,0.742,0.742,0.7443,0.7445,0.7447,0.7454,0.7456,0.7457,0.7457,0.7479,0.7479,0.7479,0,0,0,0,0,0,0.736,0.7364,0.7397,0.7383,0.7387,0.7401,0.7409,0.7411,0.7417,0.743,0.7432,0.7423,0.7443,0.7445,0.7455,0.7455,0.7457,0.7458,0.7479,0.7479,0.7479,0.747,0,0,0,0,0,0,0.7359,0.7364,0.7368,0.7383,0.7388,0.7406,0.7409,0.7412,0.7419,0.7419,0.7433,0.7435,0.7443,0.7453,0.7456,0.7457,0.7459,0.7479,0.7479,0.7479,0.7471,0.747,0.747,0,0,0,0,0,0.7357,0.7366,0.7369,0.7373,0.7394,0.7407,0.7409,0.7418,0.7419,0.7422,0.743,0.7435,0.7455,0.7454,0.7457,0.7458,0.7479,0.7479,0.7479,0.7471,0.747,0.747,0,0,0,0,0,0,0.7352,0.7368,0.7371,0.7385,0.7394,0.7408,0.7414,0.7418,0.7427,0.7427,0.7437,0.744,0.7447,0.7454,0.7453,0.7464,0.7467,0.7468,0.746,0.7459,0.7459,0.7456,0.746,0,0,0,0,0,0.7352,0.7362,0.7375,0.7386,0.739,0.7401,0.7407,0.7412,0.7422,0.7426,0.7434,0.7442,0.745,0.7455,0.7463,0.7471,0.7472,0.7473,0.7472,0.7472,0.7472,0.7472,0.7472,0.7479,0.7479,0.7479,0,0,0.7353,0.7363,0.7369,0.7385,0.7393,0.74,0.7404,0.7413,0.7418,0.7427,0.7436,0.7442,0.7451,0.7459,0.7463,0.7465,0.747,0.7472,0.7471,0.7472,0.7472,0.7471,0.7471,0.7479,0.7479,0.7479,0,0,0.7359,0.7369,0.7377,0.7383,0.7394,0.74,0.7402,0.7414,0.7418,0.7427,0.7432,0.7437,0.7452,0.7457,0.7461,0.7463,0.7466,0.7465,0.7462,0.7462,0.7461,0.7461,0.7458,0.7457,0.7465,0.7465,0.7465,0,0.7359,0.7372,0.738,0.7387,0.7392,0.7399,0.7405,0.7411,0.7424,0.7427,0.7428,0.7443,0.745,0.7457,0.7457,0.7461,0.7461,0.7464,0.7461,0.746,0.746,0.7457,0.7457,0.7465,0.7465,0.7465,0.7465,0,0.7369,0.7377,0.7382,0.7393,0.7398,0.7405,0.7412,0.7417,0.742,0.7425,0.7431,0.744,0.7448,0.745,0.7455,0.7456,0.7456,0.7459,0.7462,0.7459,0.7456,0.7456,0.7464,0.7464,0.7464,0.7464,0,0,0.7375,0.7386,0.7388,0.7391,0.7401,0.7406,0.7412,0.7419,0.742,0.7428,0.743,0.744,0.7441,0.7446,0.7451,0.7451,0.7447,0.7453,0.7454,0.745,0.7444,0.7441,0.744,0.7449,0.7449,0.7449,0.7443,0,0.7379,0.739,0.7395,0.7402,0.7408,0.7412,0.7415,0.7421,0.7424,0.7428,0.7432,0.7437,0.7441,0.7443,0.7443,0.7447,0.7445,0.7448,0.7449,0.7449,0.7446,0.7439,0.7437,0.7431,0.7442,0.7442,0.7442,0,0.7388,0.7393,0.74,0.7405,0.7408,0.7411,0.7415,0.742,0.7424,0.7426,0.7429,0.7433,0.7435,0.7438,0.7439,0.7441,0.7441,0.7443,0.7443,0.7442,0.7445,0.7437,0.7429,0.7427,0.7441,0.7441,0.7441,0,0.7387,0.7396,0.7401,0.7403,0.741,0.7412,0.7414,0.7419,0.7421,0.7424,0.7425,0.7428,0.743,0.7431,0.7435,0.7437,0.7435,0.7438,0.7435,0.7434,0.7434,0.7434,0.7424,0.7437,0.7437,0.7437,0.7437,0,0.7392,0.7395,0.74,0.7403,0.7405,0.741,0.7412,0.7415,0.7417,0.7419,0.7423,0.7423,0.7428,0.7429,0.7431,0.743,0.7432,0.7432,0.7432,0.7431,0.743,0.7431,0.743,0.7437,0.7437,0.7437,0.7437,0,0.7392,0.7396,0.74,0.7405,0.7406,0.7407,0.741,0.7411,0.7414,0.7415,0.7415,0.7419,0.7419,0.7422,0.7424,0.7425,0.7422,0.7425,0.7421,0.7421,0.7416,0.7415,0.7405,0.7403,0.7418,0.7418,0.7418,0,0.7394,0.7396,0.74,0.7401,0.7403,0.7405,0.7406,0.7409,0.741,0.7412,0.7412,0.7412,0.7413,0.7413,0.7415,0.7415,0.7415,0.7412,0.7416,0.7412,0.7412,0.7411,0.741,0.7411,0.7411,0.741,0.741,0,0.7396,0.7396,0.7399,0.74,0.74,0.7402,0.7403,0.7403,0.7406,0.7406,0.7406,0.7406,0.7406,0.7405,0.7405,0.7406,0.7407,0.7409,0.7407,0.7406,0.7402,0.7401,0.7417,0.7409,0.7409,0.7409,0.7409,0.741,0.7396,0.7396,0.7397,0.7398,0.7399,0.7399,0.7399,0.74,0.74,0.7399,0.7401,0.7399,0.7399,0.7398,0.7398,0.7395,0.7397,0.7396,0.7395,0.7395,0.7392,0.7403,0.7396,0.7396,0.7396,0.7396,0.7396,0,0.7395,0.7395,0.7396,0.7396,0.7396,0.7397,0.7397,0.7396,0.7394,0.7394,0.7393,0.7391,0.7389,0.7389,0.7386,0.7384,0.7384,0.7383,0.7382,0.7382,0.7393,0.7393,0.7382,0.7382,0.7382,0.7382,0.7382,0.7382,0.7395,0.7395,0.7395,0.7393,0.7393,0.7391,0.739,0.7389,0.7388,0.7385,0.7383,0.7382,0.7381,0.7378,0.7375,0.7374,0.7372,0.737,0.737,0.738,0.7382,0.7383,0.7383,0.737,0.737,0.7359,0.7359,0.7359]}]]